When you browse on this site, cookies collect data to enhance your experience and personalize the content and advertising you see.
Visit our Privacy Policy to learn more. By continuing to use the site, you agree to this use of cookies and data.
  • Em Portugal
  • Lista de países
  • Para 7 dias
  • Temperatura da água
  • Mapa do tempo
  • Widgets de tempo
  • user-avatar
    Iniciar Sessão

    Previsão horária em Pitsunda

    Hoje, 27 Maio, Quarta-feira

    Tempo Temperatura Precipitação Vento Pressão Humidade
    00:00 +19°C° 0 mm 3 m/s 762 mmHg 53%
    01:00 +19°C° 0 mm 3 m/s 762 mmHg 50%
    02:00 +19°C° 0 mm 3 m/s 762 mmHg 46%
    03:00 +19°C° 0 mm 2 m/s 761 mmHg 43%
    04:00 +19°C° 0 mm 2 m/s 761 mmHg 46%
    05:00 +20°C° 0 mm 2 m/s 762 mmHg 48%
    06:00 +20°C° 0 mm 3 m/s 762 mmHg 50%
    07:00 +23°C° 0 mm 2 m/s 762 mmHg 48%
    08:00 +25°C° 0 mm 2 m/s 762 mmHg 46%
    09:00 +27°C° 0 mm 2 m/s 762 mmHg 43%
    10:00 +27°C° 0 mm 2 m/s 762 mmHg 43%
    11:00 +28°C° 0 mm 3 m/s 762 mmHg 44%
    12:00 +29°C° 0 mm 3 m/s 762 mmHg 45%
    13:00 +29°C° 0 mm 3 m/s 762 mmHg 47%
    14:00 +29°C° 0 mm 2 m/s 762 mmHg 49%
    15:00 +29°C° 0 mm 1 m/s 761 mmHg 51%
    16:00 +29°C° 0 mm 1 m/s 761 mmHg 56%
    17:00 +28°C° 0 mm 1 m/s 761 mmHg 61%
    18:00 +28°C° 0 mm 1 m/s 760 mmHg 66%
    19:00 +27°C° 0 mm 2 m/s 760 mmHg 64%
    20:00 +25°C° 0 mm 3 m/s 760 mmHg 61%
    21:00 +23°C° 0 mm 4 m/s 760 mmHg 59%
    22:00 +24°C° 0 mm 3 m/s 760 mmHg 56%
    23:00 +24°C° 0 mm 2 m/s 759 mmHg 52%

    Amanhã, 28 Maio, Quinta-feira

    Tempo Temperatura Precipitação Vento Pressão Humidade
    00:00 +24°C° 0 mm 2 m/s 759 mmHg 49%
    01:00 +23°C° 0 mm 2 m/s 759 mmHg 47%
    02:00 +23°C° 0 mm 2 m/s 758 mmHg 45%
    03:00 +23°C° 0 mm 2 m/s 758 mmHg 42%
    04:00 +24°C° 0 mm 3 m/s 758 mmHg 48%
    05:00 +24°C° 0 mm 3 m/s 758 mmHg 54%
    06:00 +23°C° 0 mm 4 m/s 758 mmHg 60%
    07:00 +26°C° 0 mm 3 m/s 758 mmHg 55%
    08:00 +29°C° 0 mm 3 m/s 758 mmHg 51%
    09:00 +31°C° 0 mm 3 m/s 758 mmHg 47%
    10:00 +31°C° 0 mm 3 m/s 758 mmHg 47%
    11:00 +33°C° 0 mm 3 m/s 758 mmHg 47%
    12:00 +33°C° 0 mm 4 m/s 758 mmHg 47%
    13:00 +33°C° 0 mm 4 m/s 758 mmHg 46%
    14:00 +33°C° 0 mm 4 m/s 758 mmHg 45%
    15:00 +33°C° 0 mm 5 m/s 757 mmHg 44%
    16:00 +32°C° 0 mm 4 m/s 758 mmHg 54%
    17:00 +29°C° 0 mm 4 m/s 758 mmHg 64%
    18:00 +28°C° 0 mm 3 m/s 758 mmHg 74%
    19:00 +25°C° 0 mm 3 m/s 759 mmHg 80%
    20:00 +23°C° 0 mm 2 m/s 759 mmHg 87%
    21:00 +20°C° 0 mm 2 m/s 759 mmHg 93%
    22:00 +21°C° 0.1 mm 1 m/s 760 mmHg 94%
    23:00 +21°C° 0.1 mm 1 m/s 760 mmHg 94%

    Depois de amanhã, 29 Maio, Sexta-feira

    Tempo Temperatura Precipitação Vento Pressão Humidade
    00:00 +21°C° 0.1 mm 1 m/s 760 mmHg 94%
    01:00 +21°C° 0.1 mm 1 m/s 759 mmHg 93%
    02:00 +20°C° 0.1 mm 1 m/s 759 mmHg 93%
    03:00 +19°C° 0.1 mm 2 m/s 758 mmHg 92%
    04:00 +20°C° 0 mm 1 m/s 758 mmHg 91%
    05:00 +21°C° 0 mm 1 m/s 758 mmHg 91%
    06:00 +21°C° 0 mm 1 m/s 757 mmHg 90%
    07:00 +22°C° 0.2 mm 1 m/s 757 mmHg 89%
    08:00 +23°C° 0.2 mm 1 m/s 757 mmHg 87%
    09:00 +22°C° 0.2 mm 0 m/s 756 mmHg 85%
    10:00 +24°C° 0.1 mm 1 m/s 756 mmHg 85%
    11:00 +24°C° 0.1 mm 1 m/s 756 mmHg 84%
    12:00 +24°C° 0.1 mm 2 m/s 757 mmHg 83%
    13:00 +24°C° 0.3 mm 2 m/s 757 mmHg 86%
    14:00 +22°C° 0.3 mm 3 m/s 757 mmHg 89%
    15:00 +22°C° 0.3 mm 3 m/s 757 mmHg 92%
    16:00 +21°C° 0.5 mm 3 m/s 757 mmHg 94%
    17:00 +20°C° 0.5 mm 3 m/s 758 mmHg 96%
    18:00 +19°C° 0.5 mm 2 m/s 758 mmHg 98%
    19:00 +19°C° 0.4 mm 2 m/s 759 mmHg 98%
    20:00 +19°C° 0.4 mm 2 m/s 759 mmHg 98%
    21:00 +18°C° 0.4 mm 2 m/s 759 mmHg 99%
    22:00 +18°C° 1 mm 3 m/s 759 mmHg 99%
    23:00 +18°C° 1 mm 3 m/s 759 mmHg 99%

    30 Maio, Sábado

    Tempo Temperatura Precipitação Vento Pressão Humidade
    00:00 +18°C° 1 mm 3 m/s 759 mmHg 99%
    01:00 +17°C° 0.5 mm 3 m/s 760 mmHg 98%
    02:00 +17°C° 0.5 mm 2 m/s 760 mmHg 98%
    03:00 +17°C° 0.5 mm 2 m/s 760 mmHg 98%
    04:00 +17°C° 0.5 mm 2 m/s 760 mmHg 97%
    05:00 +16°C° 0.5 mm 2 m/s 760 mmHg 97%
    06:00 +16°C° 0.5 mm 2 m/s 761 mmHg 97%
    07:00 +17°C° 0.7 mm 3 m/s 761 mmHg 96%
    08:00 +17°C° 0.7 mm 3 m/s 761 mmHg 95%
    09:00 +17°C° 0.7 mm 3 m/s 762 mmHg 94%
    10:00 +17°C° 0.7 mm 3 m/s 762 mmHg 95%
    11:00 +17°C° 0.7 mm 3 m/s 762 mmHg 95%
    12:00 +17°C° 0.7 mm 2 m/s 762 mmHg 96%
    13:00 +18°C° 0.2 mm 2 m/s 763 mmHg 92%
    14:00 +19°C° 0.2 mm 2 m/s 763 mmHg 88%
    15:00 +20°C° 0.2 mm 2 m/s 763 mmHg 85%
    16:00 +20°C° 0 mm 2 m/s 763 mmHg 84%
    17:00 +20°C° 0 mm 1 m/s 763 mmHg 83%
    18:00 +20°C° 0 mm 1 m/s 763 mmHg 82%
    19:00 +19°C° 0 mm 1 m/s 763 mmHg 84%
    20:00 +18°C° 0 mm 1 m/s 763 mmHg 86%
    21:00 +16°C° 0 mm 1 m/s 763 mmHg 88%
    22:00 +15°C° 0 mm 1 m/s 763 mmHg 85%
    23:00 +15°C° 0 mm 1 m/s 763 mmHg 81%

    31 Maio, Domingo

    Tempo Temperatura Precipitação Vento Pressão Humidade
    00:00 +15°C° 0 mm 1 m/s 763 mmHg 77%
    01:00 +15°C° 0 mm 1 m/s 763 mmHg 74%
    02:00 +15°C° 0 mm 1 m/s 763 mmHg 72%
    03:00 +15°C° 0 mm 1 m/s 763 mmHg 70%
    04:00 +15°C° 0 mm 2 m/s 763 mmHg 69%
    05:00 +16°C° 0 mm 2 m/s 763 mmHg 68%
    06:00 +16°C° 0 mm 2 m/s 763 mmHg 67%
    07:00 +19°C° 0 mm 2 m/s 763 mmHg 60%
    08:00 +21°C° 0 mm 2 m/s 762 mmHg 52%
    09:00 +24°C° 0 mm 2 m/s 762 mmHg 45%
    10:00 +25°C° 0 mm 2 m/s 762 mmHg 44%
    11:00 +26°C° 0 mm 1 m/s 762 mmHg 43%
    12:00 +27°C° 0 mm 1 m/s 762 mmHg 42%
    13:00 +27°C° 0 mm 1 m/s 762 mmHg 42%
    14:00 +27°C° 0 mm 1 m/s 761 mmHg 43%
    15:00 +27°C° 0 mm 1 m/s 761 mmHg 43%
    16:00 +26°C° 0 mm 2 m/s 761 mmHg 49%
    17:00 +25°C° 0 mm 2 m/s 761 mmHg 56%
    18:00 +25°C° 0 mm 3 m/s 761 mmHg 62%
    19:00 +22°C° 0 mm 3 m/s 761 mmHg 62%
    20:00 +21°C° 0 mm 2 m/s 761 mmHg 62%
    21:00 +19°C° 0 mm 2 m/s 761 mmHg 62%
    22:00 +19°C° 0 mm 2 m/s 761 mmHg 59%
    23:00 +18°C° 0 mm 2 m/s 761 mmHg 57%

    1 Junho, Segunda-feira

    Tempo Temperatura Precipitação Vento Pressão Humidade
    00:00 +18°C° 0 mm 2 m/s 760 mmHg 54%
    01:00 +18°C° 0 mm 2 m/s 760 mmHg 52%
    02:00 +18°C° 0 mm 2 m/s 759 mmHg 50%
    03:00 +18°C° 0 mm 2 m/s 759 mmHg 47%
    04:00 +19°C° 0 mm 3 m/s 759 mmHg 47%
    05:00 +19°C° 0 mm 3 m/s 758 mmHg 48%
    06:00 +20°C° 0 mm 3 m/s 758 mmHg 48%
    07:00 +22°C° 0 mm 3 m/s 758 mmHg 46%
    08:00 +26°C° 0 mm 3 m/s 758 mmHg 44%
    09:00 +28°C° 0 mm 3 m/s 757 mmHg 42%
    10:00 +29°C° 0 mm 4 m/s 757 mmHg 41%
    11:00 +29°C° 0 mm 5 m/s 757 mmHg 39%
    12:00 +30°C° 0 mm 5 m/s 757 mmHg 37%
    13:00 +30°C° 0 mm 5 m/s 757 mmHg 38%
    14:00 +30°C° 0 mm 5 m/s 757 mmHg 38%
    15:00 +30°C° 0 mm 6 m/s 756 mmHg 38%
    16:00 +29°C° 0 mm 6 m/s 756 mmHg 46%
    17:00 +28°C° 0 mm 6 m/s 756 mmHg 53%
    18:00 +28°C° 0 mm 6 m/s 756 mmHg 60%
    19:00 +26°C° 0 mm 5 m/s 757 mmHg 61%
    20:00 +25°C° 0 mm 4 m/s 757 mmHg 61%
    21:00 +22°C° 0 mm 3 m/s 757 mmHg 62%
    22:00 +21°C° 0.1 mm 4 m/s 757 mmHg 69%
    23:00 +20°C° 0.1 mm 4 m/s 757 mmHg 77%
    Mostrar mais